| time (UTC) | temp F | wind direction | speed MPH | gust MPH | rain 1hr in | rain 24hr in | rain mn in | humidity % | barometer mb |
| 20260507151219 | 54 | 56 | 1.0 | 2.0 | 0.00 | 0.00 | 0.00 | 57 | 1008.0 |
| 20260507150720 | 55 | 100 | 4.0 | 4.0 | 0.00 | 0.00 | 0.00 | 55 | 1008.0 |
| 20260507150219 | 54 | 192 | 3.0 | 3.0 | 0.00 | 0.00 | 0.00 | 56 | 1008.0 |
| 20260507145719 | 56 | 315 | 3.0 | 2.0 | 0.00 | 0.00 | 0.00 | 56 | 1008.0 |
| 20260507145220 | 55 | 61 | 0.0 | 6.0 | 0.00 | 0.00 | 0.00 | 56 | 1008.0 |
| 20260507144720 | 56 | 305 | 0.0 | 5.0 | 0.00 | 0.00 | 0.00 | 57 | 1008.0 |
| 20260507144220 | 56 | 58 | 1.0 | 5.0 | 0.00 | 0.00 | 0.00 | 55 | 1008.0 |
| 20260507143721 | 56 | 262 | 1.0 | 3.0 | 0.00 | 0.00 | 0.00 | 55 | 1008.0 |
| 20260507143219 | 57 | 89 | 0.0 | 3.0 | 0.00 | 0.00 | 0.00 | 61 | 1008.0 |
| 20260507142720 | 55 | 150 | 4.0 | 4.0 | 0.00 | 0.00 | 0.00 | 52 | 1008.0 |
| 20260507142221 | 54 | 49 | 0.0 | 2.0 | 0.00 | 0.00 | 0.00 | 56 | 1008.0 |
| 20260507141720 | 53 | 29 | 0.0 | 2.0 | 0.00 | 0.00 | 0.00 | 61 | 1008.0 |
| 20260507141220 | 54 | 160 | 0.0 | 5.0 | 0.00 | 0.00 | 0.00 | 58 | 1008.0 |
| 20260507140721 | 55 | 230 | 2.0 | 3.0 | 0.00 | 0.00 | 0.00 | 57 | 1008.0 |
| 20260507140221 | 54 | 76 | 2.0 | 2.0 | 0.00 | 0.00 | 0.00 | 56 | 1008.0 |
| 20260507135719 | 57 | 33 | 0.0 | 2.0 | 0.00 | 0.00 | 0.00 | 56 | 1008.0 |
| 20260507135222 | 54 | 74 | 0.0 | 0.0 | 0.00 | 0.00 | 0.00 | 59 | 1008.0 |
| 20260507134719 | 54 | 72 | 0.0 | 0.0 | 0.00 | 0.00 | 0.00 | 59 | 1008.0 |
| 20260507134219 | 57 | 63 | 0.0 | 0.0 | 0.00 | 0.00 | 0.00 | 54 | 1008.0 |
| 20260507133721 | 55 | 73 | 0.0 | 1.0 | 0.00 | 0.00 | 0.00 | 57 | 1008.0 |
| 20260507133219 | 52 | 242 | 3.0 | 2.0 | 0.00 | 0.00 | 0.00 | 61 | 1008.0 |
| 20260507132719 | 55 | 38 | 0.0 | 0.0 | 0.00 | 0.00 | 0.00 | 59 | 1008.0 |
| 20260507132219 | 52 | 44 | 0.0 | 0.0 | 0.00 | 0.00 | 0.00 | 67 | 1008.0 |
| 20260507131719 | 51 | 77 | 0.0 | 0.0 | 0.00 | 0.00 | 0.00 | 67 | 1008.0 |
| 20260507131220 | 50 | 66 | 0.0 | 3.0 | 0.00 | 0.00 | 0.00 | 67 | 1008.0 |
| 20260507130719 | 53 | 65 | 0.0 | 0.0 | 0.00 | 0.00 | 0.00 | 66 | 1008.0 |
| 20260507130221 | 50 | 53 | 0.0 | 0.0 | 0.00 | 0.00 | 0.00 | 70 | 1008.0 |
| 20260507125720 | 48 | 51 | 1.0 | 2.0 | 0.00 | 0.00 | 0.00 | 72 | 1008.0 |
| 20260507125220 | 51 | 55 | 0.0 | 0.0 | 0.00 | 0.00 | 0.00 | 66 | 1008.0 |
| 20260507124719 | 52 | 55 | 0.0 | 1.0 | 0.00 | 0.00 | 0.00 | 69 | 1008.0 |
| 20260507124220 | 53 | 45 | 0.0 | 0.0 | 0.00 | 0.00 | 0.00 | 69 | 1008.0 |
| 20260507123720 | 47 | 74 | 0.0 | 0.0 | 0.00 | 0.00 | 0.00 | 75 | 1008.0 |
| 20260507123220 | 48 | 49 | 0.0 | 0.0 | 0.00 | 0.00 | 0.00 | 74 | 1008.0 |
| 20260507122719 | 47 | 44 | 0.0 | 0.0 | 0.00 | 0.00 | 0.00 | 77 | 1008.0 |
| 20260507122219 | 48 | 44 | 0.0 | 0.0 | 0.00 | 0.00 | 0.00 | 72 | 1008.0 |
| 20260507121720 | 53 | 60 | 0.0 | 0.0 | 0.00 | 0.00 | 0.00 | 68 | 1008.0 |
| 20260507121219 | 48 | 59 | 0.0 | 0.0 | 0.00 | 0.00 | 0.00 | 74 | 1008.0 |
| 20260507120720 | 48 | 60 | 0.0 | 0.0 | 0.00 | 0.00 | 0.00 | 77 | 1008.0 |
| 20260507120219 | 45 | 27 | 0.0 | 0.0 | 0.00 | 0.00 | 0.00 | 82 | 1008.0 |
| 20260507115720 | 44 | 58 | 0.0 | 0.0 | 0.00 | 0.00 | 0.00 | 83 | 1008.0 |
| 20260507115220 | 43 | 58 | 0.0 | 0.0 | 0.00 | 0.00 | 0.00 | 84 | 1008.0 |
| 20260507114720 | 43 | 58 | 0.0 | 0.0 | 0.00 | 0.00 | 0.00 | 85 | 1008.0 |
| 20260507114220 | 42 | 58 | 0.0 | 0.0 | 0.00 | 0.00 | 0.00 | 86 | 1008.0 |
| 20260507113720 | 42 | 58 | 0.0 | 0.0 | 0.00 | 0.00 | 0.00 | 88 | 1008.0 |
| 20260507113220 | 42 | 50 | 0.0 | 0.0 | 0.00 | 0.00 | 0.00 | 89 | 1008.0 |
| 20260507112720 | 42 | 50 | 0.0 | 0.0 | 0.00 | 0.00 | 0.00 | 90 | 1008.0 |
| 20260507112220 | 41 | 271 | 1.0 | 1.0 | 0.00 | 0.00 | 0.00 | 88 | 1008.0 |
| 20260507111720 | 41 | 71 | 0.0 | 0.0 | 0.00 | 0.00 | 0.00 | 91 | 1008.0 |
| 20260507111219 | 41 | 74 | 0.0 | 0.0 | 0.00 | 0.00 | 0.00 | 90 | 1008.0 |
| 20260507110720 | 41 | 75 | 0.0 | 0.0 | 0.00 | 0.00 | 0.00 | 90 | 1008.0 |
| 20260507110219 | 41 | 73 | 0.0 | 0.0 | 0.00 | 0.00 | 0.00 | 90 | 1008.0 |
| 20260507105720 | 40 | 74 | 0.0 | 0.0 | 0.00 | 0.00 | 0.00 | 90 | 1008.0 |
| 20260507105220 | 40 | 70 | 0.0 | 0.0 | 0.00 | 0.00 | 0.00 | 91 | 1008.0 |
| 20260507104719 | 40 | 65 | 0.0 | 2.0 | 0.00 | 0.00 | 0.00 | 91 | 1008.0 |
| 20260507104220 | 40 | 72 | 0.0 | 2.0 | 0.00 | 0.00 | 0.00 | 92 | 1008.0 |
| 20260507103719 | 39 | 72 | 0.0 | 0.0 | 0.00 | 0.00 | 0.00 | 93 | 1008.0 |
| 20260507103220 | 39 | 47 | 0.0 | 0.0 | 0.00 | 0.00 | 0.00 | 94 | 1008.0 |
| 20260507102719 | 39 | 47 | 0.0 | 0.0 | 0.00 | 0.00 | 0.00 | 93 | 1008.0 |
| 20260507102219 | 39 | 74 | 0.0 | 0.0 | 0.00 | 0.00 | 0.00 | 93 | 1008.0 |
| 20260507101720 | 40 | 75 | 0.0 | 0.0 | 0.00 | 0.00 | 0.00 | 93 | 1008.0 |
| 20260507101219 | 39 | 72 | 0.0 | 0.0 | 0.00 | 0.00 | 0.00 | 94 | 1008.0 |
| 20260507100720 | 39 | 68 | 0.0 | 0.0 | 0.00 | 0.00 | 0.00 | 95 | 1008.0 |
| 20260507100220 | 39 | 72 | 0.0 | 0.0 | 0.00 | 0.00 | 0.00 | 95 | 1008.0 |
| 20260507095719 | 39 | 59 | 0.0 | 0.0 | 0.00 | 0.00 | 0.00 | 95 | 1008.0 |
| 20260507095220 | 39 | 63 | 0.0 | 0.0 | 0.00 | 0.00 | 0.00 | 95 | 1008.0 |
| 20260507094720 | 39 | 60 | 0.0 | 0.0 | 0.00 | 0.00 | 0.00 | 95 | 1008.0 |
| 20260507094219 | 38 | 81 | 0.0 | 0.0 | 0.00 | 0.00 | 0.00 | 96 | 1008.0 |
| 20260507093721 | 38 | 57 | 0.0 | 0.0 | 0.00 | 0.00 | 0.00 | 96 | 1008.0 |
| 20260507093220 | 38 | 68 | 0.0 | 0.0 | 0.00 | 0.00 | 0.00 | 96 | 1008.0 |
| 20260507092720 | 38 | 69 | 0.0 | 0.0 | 0.00 | 0.00 | 0.00 | 96 | 1008.0 |
| 20260507092219 | 38 | 69 | 0.0 | 0.0 | 0.00 | 0.00 | 0.00 | 96 | 1008.0 |
| 20260507091719 | 38 | 69 | 0.0 | 0.0 | 0.00 | 0.00 | 0.00 | 96 | 1008.0 |
| 20260507091219 | 38 | 69 | 0.0 | 0.0 | 0.00 | 0.00 | 0.00 | 96 | 1008.0 |
| 20260507090719 | 38 | 69 | 0.0 | 0.0 | 0.00 | 0.00 | 0.00 | 96 | 1008.0 |
| 20260507090219 | 38 | 70 | 0.0 | 0.0 | 0.00 | 0.00 | 0.00 | 96 | 1008.0 |
| 20260507085719 | 38 | 66 | 0.0 | 0.0 | 0.00 | 0.00 | 0.00 | 96 | 1008.0 |
| 20260507085220 | 38 | 66 | 0.0 | 0.0 | 0.00 | 0.00 | 0.00 | 96 | 1008.0 |
| 20260507084720 | 38 | 68 | 0.0 | 0.0 | 0.00 | 0.00 | 0.00 | 96 | 1008.0 |
| 20260507084222 | 38 | 69 | 0.0 | 0.0 | 0.00 | 0.00 | 0.00 | 96 | 1008.0 |
| 20260507083719 | 38 | 64 | 0.0 | 0.0 | 0.00 | 0.00 | 0.00 | 96 | 1008.0 |
| 20260507083220 | 38 | 59 | 0.0 | 0.0 | 0.00 | 0.00 | 0.00 | 96 | 1008.0 |
| 20260507082721 | 38 | 68 | 0.0 | 0.0 | 0.00 | 0.00 | 0.00 | 96 | 1008.0 |
| 20260507082220 | 38 | 64 | 0.0 | 0.0 | 0.00 | 0.00 | 0.00 | 96 | 1008.0 |
| 20260507081720 | 39 | 67 | 0.0 | 0.0 | 0.00 | 0.00 | 0.00 | 96 | 1008.0 |
| 20260507081220 | 38 | 68 | 0.0 | 0.0 | 0.00 | 0.00 | 0.00 | 96 | 1008.0 |
| 20260507080721 | 38 | 52 | 0.0 | 0.0 | 0.00 | 0.00 | 0.00 | 96 | 1008.0 |
| 20260507080220 | 38 | 52 | 0.0 | 0.0 | 0.00 | 0.00 | 0.00 | 96 | 1008.0 |
| 20260507075720 | 39 | 51 | 0.0 | 0.0 | 0.00 | 0.00 | 0.00 | 96 | 1008.0 |
| 20260507075219 | 39 | 61 | 0.0 | 0.0 | 0.00 | 0.00 | 0.00 | 95 | 1008.0 |
| 20260507074726 | 39 | 64 | 0.0 | 0.0 | 0.00 | 0.00 | 0.00 | 95 | 1008.0 |
| 20260507074219 | 39 | 63 | 0.0 | 0.0 | 0.00 | 0.00 | 0.00 | 95 | 1008.0 |
| 20260507073719 | 40 | 77 | 0.0 | 0.0 | 0.00 | 0.00 | 0.00 | 95 | 1008.0 |
| 20260507073220 | 40 | 65 | 0.0 | 0.0 | 0.00 | 0.00 | 0.00 | 95 | 1008.0 |
| 20260507072719 | 40 | 61 | 0.0 | 0.0 | 0.00 | 0.00 | 0.00 | 95 | 1008.0 |
| 20260507072220 | 40 | 61 | 0.0 | 0.0 | 0.00 | 0.00 | 0.00 | 95 | 1008.0 |
| 20260507071719 | 40 | 58 | 0.0 | 0.0 | 0.00 | 0.00 | 0.00 | 95 | 1008.0 |
| 20260507071220 | 40 | 64 | 0.0 | 0.0 | 0.00 | 0.00 | 0.00 | 94 | 1008.0 |
| 20260507070720 | 41 | 64 | 0.0 | 0.0 | 0.00 | 0.00 | 0.00 | 94 | 1008.0 |
| 20260507070220 | 41 | 65 | 0.0 | 0.0 | 0.00 | 0.00 | 0.00 | 94 | 1008.0 |
| 20260507065720 | 41 | 65 | 0.0 | 0.0 | 0.00 | 0.00 | 0.00 | 93 | 1008.0 |
| 20260507065219 | 42 | 73 | 0.0 | 0.0 | 0.00 | 0.00 | 0.00 | 94 | 1008.0 |
| 20260507064314 | 41 | 70 | 1.0 | 2.0 | 0.00 | 0.00 | 0.00 | 94 | 1008.0 |
| 20260507063719 | 41 | 65 | 0.0 | 1.0 | 0.00 | 0.00 | 0.00 | 95 | 1008.0 |
| 20260507063220 | 41 | 61 | 0.0 | 0.0 | 0.00 | 0.00 | 0.00 | 94 | 1008.0 |
| 20260507062720 | 41 | 61 | 0.0 | 0.0 | 0.00 | 0.00 | 0.00 | 94 | 1008.0 |
| 20260507062219 | 42 | 61 | 0.0 | 0.0 | 0.00 | 0.00 | 0.00 | 94 | 1008.0 |
| 20260507061719 | 42 | 64 | 0.0 | 0.0 | 0.00 | 0.00 | 0.00 | 93 | 1008.0 |
| 20260507061219 | 42 | 64 | 0.0 | 0.0 | 0.00 | 0.00 | 0.00 | 93 | 1008.0 |
| 20260507060719 | 42 | 60 | 0.0 | 0.0 | 0.00 | 0.00 | 0.00 | 93 | 1008.0 |
| 20260507060219 | 42 | 60 | 0.0 | 0.0 | 0.00 | 0.00 | 0.00 | 93 | 1008.0 |
| 20260507055721 | 42 | 60 | 0.0 | 0.0 | 0.00 | 0.00 | 0.00 | 93 | 1009.0 |
| 20260507055219 | 43 | 60 | 0.0 | 0.0 | 0.00 | 0.00 | 0.00 | 93 | 1009.0 |
| 20260507054720 | 43 | 60 | 0.0 | 0.0 | 0.00 | 0.00 | 0.00 | 93 | 1009.0 |
| 20260507054219 | 43 | 60 | 0.0 | 0.0 | 0.00 | 0.00 | 0.00 | 92 | 1009.0 |
| 20260507053719 | 43 | 59 | 0.0 | 0.0 | 0.00 | 0.00 | 0.00 | 93 | 1009.0 |
| 20260507053219 | 43 | 59 | 0.0 | 0.0 | 0.00 | 0.00 | 0.00 | 93 | 1009.0 |
| 20260507052719 | 43 | 59 | 0.0 | 0.0 | 0.00 | 0.00 | 0.00 | 93 | 1009.0 |
| 20260507052220 | 43 | 59 | 0.0 | 0.0 | 0.00 | 0.00 | 0.00 | 93 | 1009.0 |
| 20260507051720 | 43 | 58 | 0.0 | 0.0 | 0.00 | 0.00 | 0.00 | 94 | 1009.0 |
| 20260507051219 | 43 | 55 | 0.0 | 0.0 | 0.00 | 0.00 | 0.00 | 94 | 1009.0 |
| 20260507050719 | 43 | 60 | 0.0 | 0.0 | 0.00 | 0.00 | 0.00 | 94 | 1009.0 |
| 20260507050219 | 43 | 57 | 0.0 | 0.0 | 0.00 | 0.00 | 0.00 | 94 | 1009.0 |
| 20260507045719 | 43 | 57 | 0.0 | 0.0 | 0.00 | 0.00 | 0.00 | 94 | 1009.0 |
| 20260507045219 | 43 | 57 | 0.0 | 0.0 | 0.00 | 0.00 | 0.00 | 94 | 1009.0 |
| 20260507044720 | 43 | 60 | 0.0 | 0.0 | 0.00 | 0.00 | 0.00 | 94 | 1009.0 |
| 20260507044220 | 44 | 58 | 0.0 | 0.0 | 0.00 | 0.00 | 0.00 | 94 | 1009.0 |
| 20260507043720 | 44 | 58 | 0.0 | 0.0 | 0.00 | 0.00 | 0.00 | 94 | 1009.0 |
| 20260507043220 | 44 | 58 | 0.0 | 0.0 | 0.00 | 0.00 | 0.00 | 93 | 1009.0 |
| 20260507042719 | 44 | 58 | 0.0 | 0.0 | 0.00 | 0.00 | 0.00 | 93 | 1009.0 |
| 20260507042219 | 44 | 58 | 0.0 | 0.0 | 0.00 | 0.00 | 0.00 | 93 | 1009.0 |
| 20260507041719 | 44 | 58 | 0.0 | 0.0 | 0.00 | 0.00 | 0.00 | 92 | 1009.0 |
| 20260507041219 | 44 | 58 | 0.0 | 0.0 | 0.00 | 0.00 | 0.00 | 92 | 1009.0 |
| 20260507040720 | 44 | 58 | 0.0 | 0.0 | 0.00 | 0.00 | 0.00 | 92 | 1009.0 |
| 20260507040219 | 44 | 58 | 0.0 | 0.0 | 0.00 | 0.00 | 0.59 | 92 | 1009.0 |
| 20260507035721 | 44 | 57 | 0.0 | 0.0 | 0.00 | 0.00 | 0.59 | 92 | 1009.0 |
| 20260507035219 | 44 | 56 | 0.0 | 0.0 | 0.00 | 0.00 | 0.59 | 92 | 1009.0 |
| 20260507034719 | 44 | 56 | 0.0 | 0.0 | 0.00 | 0.00 | 0.59 | 92 | 1009.0 |
| 20260507034219 | 44 | 56 | 0.0 | 0.0 | 0.00 | 0.00 | 0.59 | 91 | 1009.0 |
| 20260507033719 | 44 | 58 | 0.0 | 0.0 | 0.00 | 0.00 | 0.59 | 91 | 1009.0 |
| 20260507033220 | 44 | 58 | 0.0 | 0.0 | 0.00 | 0.00 | 0.59 | 90 | 1009.0 |
| 20260507032719 | 44 | 58 | 0.0 | 0.0 | 0.00 | 0.00 | 0.59 | 90 | 1009.0 |
| 20260507032219 | 44 | 58 | 0.0 | 0.0 | 0.00 | 0.00 | 0.59 | 89 | 1009.0 |
| 20260507031720 | 44 | 58 | 0.0 | 0.0 | 0.00 | 0.00 | 0.59 | 89 | 1009.0 |
| 20260507031219 | 44 | 58 | 0.0 | 0.0 | 0.00 | 0.00 | 0.59 | 88 | 1009.0 |
| 20260507030719 | 44 | 56 | 0.0 | 0.0 | 0.00 | 0.00 | 0.59 | 89 | 1009.0 |
| 20260507030219 | 44 | 56 | 0.0 | 0.0 | 0.00 | 0.00 | 0.59 | 89 | 1009.0 |
| 20260507025720 | 44 | 56 | 0.0 | 0.0 | 0.00 | 0.00 | 0.59 | 89 | 1009.0 |
| 20260507025220 | 44 | 56 | 0.0 | 0.0 | 0.00 | 0.00 | 0.59 | 89 | 1009.0 |
| 20260507024719 | 44 | 57 | 0.0 | 0.0 | 0.00 | 0.00 | 0.59 | 89 | 1009.0 |
| 20260507024220 | 44 | 57 | 0.0 | 0.0 | 0.00 | 0.00 | 0.59 | 89 | 1009.0 |
| 20260507023720 | 44 | 57 | 0.0 | 0.0 | 0.00 | 0.00 | 0.59 | 89 | 1009.0 |
| 20260507023219 | 44 | 57 | 0.0 | 0.0 | 0.00 | 0.00 | 0.59 | 89 | 1009.0 |
| 20260507022720 | 44 | 57 | 0.0 | 0.0 | 0.00 | 0.00 | 0.59 | 89 | 1009.0 |
| 20260507022219 | 44 | 57 | 0.0 | 0.0 | 0.00 | 0.00 | 0.59 | 89 | 1009.0 |
| 20260507021720 | 44 | 57 | 0.0 | 0.0 | 0.00 | 0.00 | 0.59 | 88 | 1009.0 |
| 20260507021220 | 44 | 57 | 0.0 | 0.0 | 0.00 | 0.00 | 0.59 | 88 | 1009.0 |
| 20260507020719 | 44 | 57 | 0.0 | 0.0 | 0.00 | 0.00 | 0.59 | 88 | 1009.0 |
| 20260507020220 | 44 | 57 | 0.0 | 0.0 | 0.00 | 0.00 | 0.59 | 88 | 1009.0 |
| 20260507015719 | 44 | 57 | 0.0 | 0.0 | 0.00 | 0.00 | 0.59 | 88 | 1009.0 |
| 20260507015219 | 44 | 57 | 0.0 | 0.0 | 0.00 | 0.00 | 0.59 | 89 | 1009.0 |
| 20260507014721 | 44 | 57 | 0.0 | 0.0 | 0.00 | 0.00 | 0.59 | 89 | 1009.0 |
| 20260507014219 | 44 | 57 | 0.0 | 0.0 | 0.00 | 0.00 | 0.59 | 90 | 1009.0 |
| 20260507013720 | 44 | 61 | 0.0 | 0.0 | 0.00 | 0.00 | 0.59 | 89 | 1009.0 |
| 20260507013222 | 44 | 61 | 0.0 | 0.0 | 0.00 | 0.00 | 0.59 | 89 | 1009.0 |
| 20260507012719 | 44 | 9 | 0.0 | 0.0 | 0.00 | 0.00 | 0.59 | 89 | 1009.0 |
| 20260507012219 | 44 | 46 | 0.0 | 0.0 | 0.00 | 0.00 | 0.59 | 89 | 1009.0 |
| 20260507011720 | 44 | 36 | 0.0 | 0.0 | 0.00 | 0.00 | 0.59 | 89 | 1009.0 |
| 20260507011220 | 44 | 48 | 0.0 | 0.0 | 0.00 | 0.00 | 0.59 | 89 | 1009.0 |
| 20260507010721 | 44 | 48 | 0.0 | 0.0 | 0.00 | 0.00 | 0.59 | 89 | 1009.0 |
| 20260507010219 | 44 | 48 | 0.0 | 0.0 | 0.00 | 0.00 | 0.59 | 89 | 1009.0 |
| 20260507005719 | 44 | 28 | 0.0 | 0.0 | 0.00 | 0.00 | 0.59 | 90 | 1008.0 |
| 20260507005220 | 44 | 28 | 0.0 | 0.0 | 0.00 | 0.00 | 0.59 | 89 | 1008.0 |
| 20260507004720 | 44 | 58 | 0.0 | 0.0 | 0.00 | 0.00 | 0.59 | 89 | 1008.0 |
| 20260507004220 | 44 | 12 | 0.0 | 0.0 | 0.00 | 0.00 | 0.59 | 88 | 1008.0 |
| 20260507003720 | 44 | 12 | 0.0 | 0.0 | 0.00 | 0.00 | 0.59 | 89 | 1008.0 |
| 20260507003220 | 44 | 12 | 0.0 | 0.0 | 0.00 | 0.00 | 0.59 | 89 | 1008.0 |
| 20260507002720 | 44 | 12 | 0.0 | 0.0 | 0.00 | 0.00 | 0.59 | 88 | 1008.0 |
| 20260507002220 | 44 | 12 | 0.0 | 0.0 | 0.00 | 0.00 | 0.59 | 88 | 1008.0 |
| 20260507001720 | 44 | 12 | 0.0 | 0.0 | 0.00 | 0.00 | 0.59 | 89 | 1008.0 |
| 20260507001219 | 44 | 12 | 0.0 | 0.0 | 0.00 | 0.00 | 0.59 | 88 | 1008.0 |
| 20260507000719 | 44 | 42 | 0.0 | 0.0 | 0.00 | 0.00 | 0.59 | 88 | 1008.0 |
| 20260507000220 | 45 | 10 | 0.0 | 0.0 | 0.00 | 0.00 | 0.59 | 87 | 1008.0 |
| 20260506235719 | 45 | 33 | 0.0 | 0.0 | 0.00 | 0.00 | 0.59 | 87 | 1008.0 |
| 20260506235219 | 44 | 32 | 0.0 | 0.0 | 0.00 | 0.00 | 0.59 | 88 | 1008.0 |
| 20260506234719 | 45 | 40 | 0.0 | 0.0 | 0.00 | 0.00 | 0.59 | 88 | 1008.0 |
| 20260506234219 | 45 | 40 | 0.0 | 0.0 | 0.00 | 0.00 | 0.59 | 88 | 1008.0 |
| 20260506233720 | 45 | 40 | 0.0 | 0.0 | 0.00 | 0.00 | 0.59 | 87 | 1008.0 |
| 20260506233221 | 45 | 40 | 0.0 | 0.0 | 0.00 | 0.00 | 0.59 | 86 | 1008.0 |
| 20260506232720 | 46 | 31 | 0.0 | 0.0 | 0.00 | 0.00 | 0.59 | 86 | 1008.0 |
| 20260506232219 | 45 | 52 | 0.0 | 0.0 | 0.00 | 0.00 | 0.59 | 86 | 1008.0 |
| 20260506231720 | 46 | 31 | 0.0 | 0.0 | 0.00 | 0.00 | 0.59 | 84 | 1008.0 |
| 20260506231220 | 46 | 33 | 0.0 | 0.0 | 0.00 | 0.00 | 0.59 | 85 | 1008.0 |
| 20260506230719 | 46 | 48 | 0.0 | 0.0 | 0.00 | 0.00 | 0.59 | 86 | 1008.0 |
| 20260506230219 | 46 | 32 | 0.0 | 0.0 | 0.00 | 0.00 | 0.59 | 86 | 1008.0 |
| 20260506225720 | 46 | 9 | 0.0 | 0.0 | 0.00 | 0.00 | 0.59 | 87 | 1007.0 |
| 20260506225219 | 46 | 7 | 0.0 | 1.0 | 0.00 | 0.00 | 0.59 | 87 | 1007.0 |
| 20260506224720 | 46 | 27 | 0.0 | 2.0 | 0.00 | 0.00 | 0.59 | 88 | 1007.0 |
| 20260506224220 | 46 | 28 | 0.0 | 3.0 | 0.00 | 0.00 | 0.59 | 87 | 1007.0 |
| 20260506223719 | 46 | 289 | 1.0 | 2.0 | 0.00 | 0.00 | 0.59 | 88 | 1007.0 |
| 20260506223219 | 46 | 3 | 1.0 | 1.0 | 0.00 | 0.00 | 0.59 | 89 | 1007.0 |
| 20260506222719 | 46 | 33 | 1.0 | 2.0 | 0.00 | 0.00 | 0.59 | 87 | 1007.0 |
| 20260506222219 | 46 | 35 | 0.0 | 0.0 | 0.00 | 0.00 | 0.59 | 88 | 1007.0 |
| 20260506221723 | 46 | 327 | 1.0 | 3.0 | 0.00 | 0.00 | 0.59 | 88 | 1007.0 |
| 20260506221219 | 46 | 344 | 1.0 | 2.0 | 0.00 | 0.00 | 0.59 | 88 | 1007.0 |
| 20260506220720 | 47 | 46 | 0.0 | 0.0 | 0.00 | 0.00 | 0.59 | 88 | 1007.0 |
| 20260506220219 | 46 | 8 | 0.0 | 2.0 | 0.00 | 0.00 | 0.59 | 88 | 1007.0 |
| 20260506215719 | 46 | 46 | 0.0 | 2.0 | 0.00 | 0.00 | 0.59 | 90 | 1006.0 |
| 20260506215220 | 46 | 11 | 0.0 | 2.0 | 0.00 | 0.00 | 0.59 | 90 | 1006.0 |
| 20260506214719 | 46 | 358 | 0.0 | 0.0 | 0.00 | 0.00 | 0.59 | 89 | 1006.0 |
| 20260506214220 | 47 | 19 | 0.0 | 0.0 | 0.00 | 0.00 | 0.59 | 88 | 1006.0 |
| 20260506213720 | 46 | 359 | 0.0 | 2.0 | 0.00 | 0.00 | 0.59 | 90 | 1006.0 |
| 20260506213220 | 46 | 40 | 0.0 | 2.0 | 0.00 | 0.00 | 0.59 | 91 | 1006.0 |
| 20260506212720 | 46 | 47 | 4.0 | 5.0 | 0.00 | 0.00 | 0.59 | 89 | 1006.0 |
| 20260506212219 | 46 | 40 | 2.0 | 5.0 | 0.00 | 0.00 | 0.59 | 91 | 1006.0 |
| 20260506211719 | 46 | 289 | 2.0 | 9.0 | 0.00 | 0.00 | 0.59 | 90 | 1006.0 |
| 20260506211220 | 47 | 355 | 2.0 | 2.0 | 0.00 | 0.00 | 0.59 | 90 | 1006.0 |
| 20260506210719 | 48 | 316 | 4.0 | 4.0 | 0.00 | 0.00 | 0.59 | 89 | 1006.0 |
| 20260506210220 | 49 | 55 | 0.0 | 1.0 | 0.00 | 0.00 | 0.59 | 88 | 1006.0 |
| 20260506205721 | 49 | 7 | 2.0 | 3.0 | 0.00 | 0.00 | 0.59 | 86 | 1006.0 |
| 20260506205219 | 50 | 323 | 4.0 | 5.0 | 0.00 | 0.00 | 0.59 | 84 | 1006.0 |
| 20260506204719 | 50 | 86 | 2.0 | 4.0 | 0.00 | 0.00 | 0.59 | 86 | 1006.0 |
| 20260506204220 | 49 | 270 | 4.0 | 10.0 | 0.00 | 0.00 | 0.59 | 87 | 1006.0 |
| 20260506203721 | 49 | 17 | 2.0 | 2.0 | 0.00 | 0.00 | 0.59 | 88 | 1006.0 |
| 20260506203221 | 50 | 63 | 3.0 | 7.0 | 0.00 | 0.00 | 0.59 | 87 | 1006.0 |
| 20260506202719 | 51 | 56 | 1.0 | 5.0 | 0.00 | 0.00 | 0.59 | 85 | 1006.0 |
| 20260506202219 | 52 | 69 | 2.0 | 5.0 | 0.00 | 0.00 | 0.59 | 81 | 1006.0 |
| 20260506201723 | 54 | 268 | 5.0 | 4.0 | 0.00 | 0.00 | 0.59 | 74 | 1006.0 |
| 20260506201219 | 56 | 170 | 5.0 | 2.0 | 0.00 | 0.00 | 0.59 | 74 | 1006.0 |
| 20260506200719 | 55 | 31 | 0.0 | 3.0 | 0.00 | 0.00 | 0.59 | 74 | 1006.0 |
| 20260506200219 | 54 | 52 | 4.0 | 5.0 | 0.00 | 0.00 | 0.59 | 79 | 1006.0 |
| 20260506195719 | 53 | 35 | 1.0 | 9.0 | 0.00 | 0.00 | 0.59 | 80 | 1006.0 |
| 20260506195220 | 56 | 151 | 2.0 | 2.0 | 0.00 | 0.00 | 0.59 | 73 | 1006.0 |
| 20260506194721 | 57 | 312 | 0.0 | 6.0 | 0.00 | 0.00 | 0.59 | 73 | 1006.0 |
| 20260506194220 | 59 | 271 | 3.0 | 2.0 | 0.00 | 0.00 | 0.59 | 64 | 1006.0 |
| 20260506193719 | 59 | 34 | 0.0 | 6.0 | 0.00 | 0.00 | 0.59 | 71 | 1006.0 |
| 20260506193224 | 58 | 44 | 2.0 | 3.0 | 0.00 | 0.00 | 0.59 | 66 | 1006.0 |
| 20260506192719 | 58 | 306 | 0.0 | 3.0 | 0.00 | 0.00 | 0.59 | 66 | 1006.0 |
| 20260506192219 | 57 | 317 | 1.0 | 3.0 | 0.00 | 0.00 | 0.59 | 69 | 1006.0 |
| 20260506191719 | 58 | 291 | 5.0 | 7.0 | 0.00 | 0.00 | 0.59 | 61 | 1006.0 |
| 20260506191219 | 62 | 287 | 6.0 | 3.0 | 0.00 | 0.00 | 0.59 | 57 | 1006.0 |
| 20260506190720 | 62 | 33 | 2.0 | 1.0 | 0.00 | 0.00 | 0.59 | 56 | 1006.0 |
| 20260506190219 | 60 | 82 | 0.0 | 1.0 | 0.00 | 0.00 | 0.59 | 60 | 1006.0 |
| 20260506185720 | 59 | 214 | 3.0 | 2.0 | 0.00 | 0.00 | 0.59 | 60 | 1005.0 |
| 20260506185219 | 59 | 341 | 4.0 | 5.0 | 0.00 | 0.00 | 0.59 | 65 | 1005.0 |
| 20260506184720 | 60 | 272 | 2.0 | 2.0 | 0.00 | 0.00 | 0.59 | 66 | 1005.0 |
| 20260506184222 | 58 | 85 | 2.0 | 6.0 | 0.00 | 0.00 | 0.59 | 64 | 1005.0 |
| 20260506183719 | 61 | 48 | 0.0 | 0.0 | 0.00 | 0.00 | 0.59 | 60 | 1005.0 |
| 20260506183219 | 59 | 105 | 0.0 | 0.0 | 0.00 | 0.00 | 0.59 | 63 | 1005.0 |
| 20260506182719 | 61 | 314 | 0.0 | 1.0 | 0.00 | 0.00 | 0.59 | 57 | 1005.0 |
| 20260506182220 | 56 | 38 | 0.0 | 0.0 | 0.00 | 0.00 | 0.59 | 68 | 1005.0 |
| 20260506181719 | 55 | 61 | 0.0 | 0.0 | 0.00 | 0.00 | 0.59 | 72 | 1005.0 |
| 20260506181222 | 57 | 58 | 0.0 | 0.0 | 0.00 | 0.00 | 0.59 | 66 | 1005.0 |
| 20260506180719 | 56 | 32 | 0.0 | 0.0 | 0.00 | 0.00 | 0.59 | 69 | 1005.0 |
| 20260506180220 | 56 | 309 | 0.0 | 0.0 | 0.00 | 0.00 | 0.59 | 71 | 1005.0 |
| 20260506175719 | 55 | 16 | 0.0 | 0.0 | 0.00 | 0.00 | 0.59 | 70 | 1005.0 |
| 20260506175219 | 56 | 65 | 0.0 | 0.0 | 0.00 | 0.00 | 0.59 | 65 | 1005.0 |
| 20260506174721 | 56 | 3 | 0.0 | 0.0 | 0.00 | 0.00 | 0.59 | 66 | 1005.0 |
| 20260506173733 | 55 | 59 | 0.0 | 0.0 | 0.00 | 0.00 | 0.59 | 70 | 1005.0 |
| 20260506173220 | 56 | 322 | 0.0 | 0.0 | 0.00 | 0.00 | 0.59 | 67 | 1005.0 |
| 20260506172719 | 56 | 55 | 0.0 | 0.0 | 0.00 | 0.00 | 0.59 | 68 | 1005.0 |
| 20260506172220 | 55 | 55 | 0.0 | 0.0 | 0.00 | 0.00 | 0.59 | 74 | 1005.0 |
| 20260506171720 | 54 | 41 | 0.0 | 0.0 | 0.00 | 0.00 | 0.59 | 80 | 1005.0 |
| 20260506171219 | 53 | 4 | 0.0 | 0.0 | 0.00 | 0.00 | 0.59 | 76 | 1005.0 |
| 20260506170719 | 53 | 42 | 0.0 | 0.0 | 0.00 | 0.00 | 0.59 | 75 | 1005.0 |
| 20260506170220 | 52 | 41 | 0.0 | 0.0 | 0.00 | 0.00 | 0.59 | 80 | 1005.0 |
| 20260506165720 | 51 | 22 | 0.0 | 0.0 | 0.00 | 0.00 | 0.59 | 85 | 1005.0 |
| 20260506165219 | 51 | 15 | 0.0 | 0.0 | 0.00 | 0.00 | 0.59 | 85 | 1005.0 |
| 20260506164722 | 52 | 32 | 0.0 | 0.0 | 0.00 | 0.00 | 0.59 | 87 | 1005.0 |
| 20260506164219 | 51 | 46 | 0.0 | 0.0 | 0.00 | 0.00 | 0.59 | 84 | 1005.0 |
| 20260506163721 | 51 | 44 | 0.0 | 0.0 | 0.00 | 0.00 | 0.59 | 85 | 1005.0 |
| 20260506163220 | 53 | 43 | 0.0 | 0.0 | 0.00 | 0.00 | 0.59 | 83 | 1005.0 |
| 20260506162719 | 53 | 71 | 2.0 | 2.0 | 0.00 | 0.00 | 0.59 | 80 | 1005.0 |
| 20260506162220 | 52 | 6 | 0.0 | 2.0 | 0.00 | 0.00 | 0.59 | 86 | 1005.0 |
| 20260506161719 | 53 | 33 | 1.0 | 1.0 | 0.00 | 0.00 | 0.59 | 79 | 1005.0 |
| 20260506161220 | 54 | 40 | 0.0 | 0.0 | 0.00 | 0.00 | 0.59 | 83 | 1005.0 |
| 20260506160719 | 53 | 63 | 0.0 | 0.0 | 0.00 | 0.00 | 0.59 | 83 | 1005.0 |
| 20260506160219 | 53 | 48 | 0.0 | 0.0 | 0.00 | 0.00 | 0.59 | 81 | 1005.0 |
| 20260506155719 | 53 | 82 | 0.0 | 0.0 | 0.00 | 0.00 | 0.59 | 80 | 1005.0 |
| 20260506155224 | 53 | 31 | 0.0 | 0.0 | 0.00 | 0.00 | 0.59 | 83 | 1005.0 |
| 20260506154727 | 53 | 32 | 0.0 | 0.0 | 0.00 | 0.00 | 0.59 | 85 | 1005.0 |
| 20260506154219 | 53 | 45 | 0.0 | 0.0 | 0.00 | 0.00 | 0.59 | 83 | 1005.0 |
| 20260506153720 | 53 | 45 | 0.0 | 0.0 | 0.00 | 0.00 | 0.59 | 86 | 1005.0 |
| 20260506153221 | 52 | 46 | 0.0 | 0.0 | 0.00 | 0.00 | 0.59 | 87 | 1005.0 |
| 20260506152720 | 52 | 38 | 0.0 | 0.0 | 0.00 | 0.00 | 0.59 | 87 | 1005.0 |
| 20260506152220 | 51 | 51 | 0.0 | 0.0 | 0.00 | 0.00 | 0.59 | 88 | 1005.0 |
| 20260506151719 | 51 | 56 | 0.0 | 0.0 | 0.00 | 0.00 | 0.59 | 85 | 1005.0 |